Theta_e
301 302 303 304 303 305 306 307 309 313 315 317 318 319 320 319 320 320 319 319 320 319 319 320 320 319 319 319 320 320 320 320 321 321 320 320 320 320 319 319 318 319 318 318 318 318 317 317 316 317 317 317 317 317 316 316 315 314 314 313 312 312 312 311 309 309 306 301 304 307 305 306 300 300 300 299 297 296 295 296 295 294 294 294 295
300 302 301 303 303 305 306 306 308 310 312 314 316 318 319 319 319 318 317 319 318 319 318 319 319 319 318 319 319 319 320 320 320 320 319 319 319 320 319 318 317 317 317 316 316 318 317 316 316 316 317 317 317 315 316 316 316 315 314 313 313 312 313 312 310 310 310 299 300 297 297 300 303 298 299 298 297 293 293 293 293 294 294 294 293
300 300 301 302 303 304 305 306 307 308 310 312 313 315 316 316 316 316 317 318 316 317 318 318 318 318 318 318 318 318 319 319 319 319 318 318 317 317 318 317 316 315 315 316 316 316 315 315 316 316 317 315 315 316 314 314 314 313 313 312 312 313 312 312 312 310 309 307 301 302 298 296 301 300 297 298 296 293 292 292 293 293 293 294 292
299 298 299 300 301 301 303 304 304 305 305 308 309 311 313 313 313 314 316 316 315 316 316 318 317 317 317 316 316 317 317 317 316 316 318 317 316 317 316 317 317 316 316 316 315 315 315 315 316 316 315 314 315 315 314 314 313 313 313 313 313 313 313 312 312 311 311 310 296 303 298 297 295 293 294 293 292 291 291 291 292 292 292 292 292
296 297 296 298 298 298 299 299 300 302 303 304 305 306 307 308 309 311 313 313 315 314 313 313 315 315 317 317 317 316 316 316 317 316 316 316 316 317 317 317 317 317 317 317 311 316 316 315 316 316 315 314 314 314 314 313 313 313 313 313 313 313 313 313 312 312 311 310 304 296 294 293 289 288 290 291 289 289 289 289 289 290 291 291 291
293 294 294 295 297 296 297 296 298 299 300 301 303 304 305 306 308 308 310 314 313 313 314 312 312 314 314 315 316 316 315 314 315 316 316 315 315 316 316 317 317 317 317 317 317 316 316 316 316 315 314 314 313 313 313 312 312 312 312 312 312 312 312 311 311 310 310 311 310 300 289 293 289 288 289 291 290 288 287 287 287 288 288 288 288
291 292 294 294 295 297 297 297 297 297 298 300 301 303 304 304 305 307 307 308 310 311 310 310 310 311 313 313 314 315 315 313 315 315 316 316 316 316 316 317 317 317 317 317 317 317 317 316 315 315 314 314 313 313 312 311 311 311 311 311 311 310 309 309 306 306 307 306 302 296 294 290 291 291 287 289 289 290 290 287 287 287 286 287 287
293 294 293 294 294 296 296 296 296 297 297 298 300 302 303 303 304 305 303 306 308 309 310 311 310 308 311 312 314 313 313 313 314 315 315 316 316 316 316 316 316 316 316 316 316 316 316 316 316 315 315 315 314 314 313 312 311 310 311 310 309 308 307 304 302 303 304 303 302 298 293 292 287 286 286 287 287 287 288 290 291 289 286 286 287
294 293 292 293 295 296 295 295 296 295 296 297 298 300 301 301 302 303 303 304 306 306 308 309 308 309 309 310 311 311 312 313 314 314 313 314 316 316 317 316 316 315 315 315 315 316 316 316 316 316 313 304 304 305 306 306 312 310 309 309 308 308 307 305 303 302 302 302 301 298 294 290 291 288 286 286 288 292 290 288 289 290 288 286 286
293 293 293 294 294 294 294 294 294 294 295 296 296 297 297 298 298 300 302 302 302 301 301 302 305 308 309 309 309 310 311 314 307 305 306 313 316 317 317 316 315 315 314 314 314 315 315 315 314 302 301 299 299 300 301 302 303 309 312 310 309 307 304 302 302 302 301 300 300 298 294 293 292 290 290 289 290 287 287 287 288 288 286 286 286
293 292 294 294 293 292 292 293 293 293 294 294 294 294 296 296 296 297 298 299 299 298 297 300 303 305 307 309 310 309 311 313 304 305 304 303 311 316 316 316 315 315 314 314 314 313 314 315 315 307 301 299 301 298 300 300 300 301 302 304 305 309 303 300 301 301 299 299 299 297 297 296 294 291 291 292 288 289 289 288 289 287 287 287 288
292 292 292 293 293 293 292 292 291 292 292 293 293 293 292 292 293 294 295 295 296 293 296 299 302 304 306 307 308 310 311 303 304 304 303 302 301 309 315 316 315 315 315 314 314 313 312 312 312 313 311 309 309 305 299 297 298 299 299 300 300 301 303 304 301 299 298 298 298 298 297 297 297 291 291 290 289 288 288 287 287 288 287 287 289
292 292 292 292 292 293 292 292 292 292 292 292 291 291 290 291 291 292 293 292 290 293 296 297 299 300 301 303 305 308 310 304 303 302 302 302 302 303 312 314 315 315 315 314 314 314 313 311 311 311 313 298 298 306 307 304 297 297 298 298 298 299 301 301 302 305 302 299 298 298 297 298 297 295 293 292 292 288 288 287 287 287 288 289 289
291 292 292 292 292 292 292 292 292 292 291 290 289 289 289 290 290 289 289 289 290 291 291 293 295 296 297 298 300 302 304 301 301 301 300 300 301 302 309 312 312 313 314 314 314 313 313 310 308 307 305 304 305 306 307 307 306 303 301 301 302 299 297 297 298 297 299 303 301 300 300 299 299 299 295 292 290 289 287 288 287 287 287 289 288
291 290 291 291 291 291 291 291 291 291 291 290 289 289 288 288 288 289 288 288 289 290 290 290 292 293 295 295 296 297 300 298 298 298 299 299 299 298 305 308 310 311 312 313 313 313 312 311 309 308 307 305 304 302 302 303 303 303 302 301 301 301 301 300 299 299 299 301 301 301 301 299 300 297 294 292 293 293 292 290 289 288 287 284 282
289 289 289 289 289 289 289 289 290 290 290 289 289 289 289 288 288 288 287 287 287 287 287 289 291 292 293 293 294 295 296 296 296 296 297 298 298 300 302 304 306 307 309 310 310 310 309 309 307 305 304 303 299 297 299 302 303 299 296 296 296 297 298 297 298 299 300 301 301 301 302 300 298 296 293 293 293 291 289 288 288 287 286 286 285
289 289 289 289 289 289 289 289 288 288 288 288 288 288 288 289 288 286 287 287 286 287 287 288 288 289 290 291 292 293 293 293 294 295 296 297 297 300 301 301 303 304 306 306 307 306 304 303 303 304 303 303 299 299 298 297 300 297 295 295 295 294 295 294 294 295 296 296 297 297 297 297 297 297 295 294 292 291 289 288 286 287 286 285 284
289 288 288 288 288 288 288 288 288 288 288 287 287 287 287 287 287 287 287 288 287 287 287 287 287 287 288 289 290 291 291 291 293 294 294 295 295 298 299 299 299 300 301 301 301 301 301 294 294 301 302 302 298 298 298 296 297 296 294 293 292 292 292 291 291 291 292 293 293 293 294 295 295 296 295 294 293 291 291 290 288 287 287 287 285
288 287 287 287 287 287 287 287 286 287 287 287 287 287 287 287 287 287 287 287 287 287 287 287 287 287 286 288 288 289 290 290 292 293 293 294 293 296 296 297 296 297 298 299 299 300 300 295 292 294 297 298 298 298 298 296 298 297 296 294 293 292 293 291 290 289 288 288 289 289 289 290 292 292 291 293 292 290 293 292 289 288 288 287 284
286 286 286 286 286 286 286 285 285 285 285 286 286 286 287 286 287 287 286 287 287 287 287 287 287 287 287 288 289 290 290 290 291 292 293 293 294 294 295 295 294 295 296 296 297 297 297 296 294 294 295 295 297 298 297 296 296 297 295 294 293 293 293 290 289 290 290 290 289 288 289 288 288 288 289 290 289 288 289 288 289 289 289 287 284
285 285 285 285 285 284 285 284 284 285 285 285 285 285 285 285 286 286 286 286 286 286 286 286 287 287 288 288 289 289 290 290 290 291 292 293 294 293 293 294 294 294 295 294 296 296 297 296 294 293 295 295 295 296 296 296 295 295 295 294 295 296 292 291 289 288 289 288 287 286 286 286 286 287 287 287 287 287 287 287 288 288 289 287 285
284 284 284 284 284 285 285 285 285 286 286 285 285 285 285 284 284 285 285 285 285 285 286 286 287 287 288 288 288 289 288 288 289 290 291 292 293 293 292 292 293 293 293 294 294 295 295 295 293 292 293 294 294 295 295 296 295 293 295 295 296 295 291 291 291 289 289 288 287 286 286 285 285 286 286 286 286 285 285 284 285 285 285 287 287
283 283 283 283 284 284 285 285 286 286 286 286 286 286 286 285 284 283 283 284 284 285 285 286 286 286 287 287 287 287 287 287 287 288 289 291 292 292 293 292 293 292 292 292 293 295 295 295 294 291 292 293 294 295 295 296 294 294 295 295 294 294 291 290 289 289 289 288 287 286 286 286 285 285 285 285 284 283 282 281 280 280 279 279 280
284 284 283 283 283 284 285 285 286 286 286 286 286 286 286 286 286 285 284 283 284 285 285 284 285 286 286 287 286 285 285 285 286 287 288 290 291 292 292 293 293 291 291 292 293 293 294 294 292 293 292 292 293 294 294 294 292 294 294 294 293 292 290 289 288 288 287 286 286 286 286 286 286 285 285 284 282 281 279 278 278 279 278 278 279
285 285 285 284 284 285 285 285 285 286 286 286 285 286 286 286 286 286 285 285 284 284 285 285 285 285 286 286 287 286 286 285 285 287 287 288 290 291 292 292 292 292 290 290 290 291 291 292 292 292 292 292 293 293 293 292 293 293 293 292 290 290 289 288 288 287 286 286 286 286 286 286 286 285 284 282 280 279 278 277 277 277 277 277 277
283 284 284 285 285 285 284 285 285 285 286 286 285 285 285 285 285 285 285 285 284 284 284 284 284 285 285 286 286 287 286 286 286 286 286 286 287 288 289 289 288 289 288 289 288 289 289 290 290 291 290 291 290 290 290 290 290 290 290 290 290 289 289 289 288 287 287 287 287 286 287 286 285 284 282 280 280 279 278 277 276 277 277 277 276
282 283 283 284 284 284 284 284 284 284 284 285 285 285 285 285 285 285 285 285 285 284 284 284 284 284 285 285 286 286 286 286 285 285 286 286 287 288 288 288 287 287 288 288 288 289 289 289 290 290 290 290 289 289 289 288 288 289 289 289 289 289 289 289 289 288 288 288 287 287 287 285 283 281 280 280 279 279 279 277 277 276 276 276 275
282 281 281 282 283 283 283 283 283 283 284 284 284 284 285 285 285 285 285 285 284 284 284 284 284 284 285 285 286 286 286 286 286 286 286 288 288 288 288 288 288 289 289 289 289 289 289 288 288 288 288 288 287 288 288 288 288 288 288 288 288 288 287 287 287 288 288 287 286 284 282 281 280 280 280 279 279 278 278 277 276 275 275 275 273
281 280 280 281 281 282 283 282 282 282 283 283 284 284 284 285 285 285 286 286 286 285 285 286 286 285 285 286 286 286 287 287 287 288 288 289 288 289 289 289 289 289 288 290 289 288 288 287 287 287 287 287 287 287 287 287 286 287 287 287 287 287 287 287 287 287 287 285 284 283 282 281 281 280 280 279 278 278 278 277 277 275 276 276 273
279 278 279 280 280 280 280 280 281 282 282 283 283 284 285 286 286 285 285 286 286 287 287 286 287 287 286 287 286 287 287 288 289 289 289 289 289 289 289 290 290 290 289 290 289 288 288 287 287 287 287 287 286 286 286 286 285 285 285 286 286 286 286 286 287 287 286 285 284 283 282 282 281 280 279 278 278 278 278 278 276 276 275 274 272
278 278 278 278 279 279 279 279 280 280 281 282 283 283 283 285 286 286 286 286 286 287 287 287 287 287 286 286 287 288 288 288 288 288 288 288 289 289 289 289 290 290 291 289 288 287 287 287 287 287 287 287 287 287 287 286 285 285 285 285 285 285 285 286 286 286 285 284 283 283 282 282 281 280 279 278 277 277 277 278 277 276 275 273 271
276 276 276 276 278 278 278 278 279 279 280 281 282 282 282 282 284 286 286 286 286 286 287 287 287 287 287 287 287 287 287 287 288 288 288 287 287 288 288 289 289 290 290 290 288 287 287 287 287 287 287 287 287 287 287 286 286 286 285 284 284 285 285 285 286 285 284 284 283 282 282 282 281 280 279 278 277 277 277 276 276 275 274 274 272
274 274 275 276 277 277 277 277 278 278 278 278 279 281 282 282 281 282 285 286 286 286 286 287 287 287 287 287 287 286 287 287 287 287 287 287 287 287 288 288 289 290 290 288 287 287 287 287 287 287 287 287 287 287 287 287 287 286 286 285 285 285 285 286 286 285 284 284 283 283 282 282 281 280 279 279 277 276 276 276 276 275 274 273 272
273 274 275 276 276 276 276 276 276 277 277 278 279 280 281 282 282 282 282 282 284 285 286 287 287 287 287 287 287 287 287 287 287 287 286 286 287 287 287 287 289 290 289 288 287 287 287 287 287 287 287 287 287 287 287 287 287 286 286 286 286 286 285 285 285 284 284 283 283 282 282 282 280 280 278 277 277 276 276 275 275 274 273 273 272
274 275 276 276 276 276 276 276 276 276 277 277 278 279 279 281 281 281 281 281 281 282 283 285 286 287 287 287 287 287 287 287 287 287 287 287 287 288 288 286 285 286 287 288 287 287 287 287 287 287 287 287 287 287 287 287 287 286 286 286 286 285 285 284 284 284 283 283 282 282 281 281 280 280 278 277 276 275 275 275 275 274 274 273 272
275 275 275 275 275 275 275 276 276 276 276 277 278 278 279 280 280 281 282 282 282 282 283 284 285 286 286 286 286 287 287 287 287 287 287 287 287 287 285 284 285 285 286 287 287 287 287 287 287 287 288 288 288 287 287 287 287 287 286 286 285 285 284 283 283 283 282 282 281 281 280 279 278 278 277 276 276 275 275 275 275 274 274 273 273
274 274 274 274 274 274 274 274 275 276 277 277 278 278 279 279 280 281 281 281 282 282 283 284 285 285 286 286 286 286 286 286 286 287 286 287 287 286 284 285 285 285 285 286 287 287 287 287 287 287 288 288 288 288 287 287 287 287 286 286 285 285 284 283 282 282 281 281 280 279 279 278 277 277 277 275 275 275 275 275 274 274 274 273 273
272 272 272 272 273 273 273 273 274 275 276 276 277 278 278 278 279 279 279 280 280 281 282 283 284 283 283 285 286 286 287 286 286 286 286 285 285 285 285 285 285 285 285 286 287 287 287 287 287 287 288 288 288 288 287 287 287 286 286 285 284 284 283 282 281 281 280 280 279 279 278 277 277 277 276 275 275 274 274 274 274 273 273 273 272
269 270 271 272 272 271 271 272 273 274 274 275 276 277 277 277 278 278 279 279 280 280 280 281 282 283 284 285 285 286 286 285 285 284 285 286 286 286 285 285 285 285 286 286 286 287 287 287 287 287 287 288 287 287 287 287 287 286 285 284 283 282 281 281 280 280 279 279 278 278 278 277 277 276 276 275 274 274 274 274 274 273 272 272 272
267 267 268 270 269 270 271 271 272 272 273 274 274 275 275 276 277 277 278 278 278 278 279 279 280 281 283 284 284 285 284 284 284 284 285 285 285 285 285 285 285 285 285 286 286 286 286 287 287 287 287 287 287 287 287 286 286 285 284 283 282 281 281 281 280 279 279 278 278 277 277 276 276 276 275 275 275 274 274 273 273 273 273 272 272
265 266 267 268 269 269 270 270 271 271 272 273 273 273 274 275 276 276 277 277 277 277 278 279 279 280 281 282 283 284 283 282 283 283 284 284 284 284 285 285 285 285 285 285 286 286 286 286 287 287 287 286 286 286 285 285 284 283 282 281 281 280 280 280 279 279 278 277 277 276 276 276 276 275 274 275 275 275 274 274 273 273 272 272 271
265 266 266 267 268 269 269 269 270 271 271 271 271 272 273 274 275 275 275 275 275 275 275 276 277 278 280 280 281 282 282 281 282 282 282 282 283 283 283 284 284 282 282 282 284 284 285 285 286 286 285 284 284 283 283 282 282 281 281 280 280 279 278 278 278 278 277 277 276 276 276 275 275 275 275 275 274 274 273 273 272 272 271 271 271
266 266 266 267 267 267 267 268 269 269 269 270 271 273 273 274 274 274 274 274 274 275 275 275 276 278 278 279 279 279 279 279 278 279 280 280 279 278 278 277 276 275 276 277 277 279 281 282 283 283 283 282 282 282 282 282 281 280 280 279 279 278 277 277 277 276 276 276 275 275 275 275 274 274 274 273 273 273 272 272 271 271 271 270 270
265 265 265 266 266 266 267 267 268 269 270 271 272 272 272 272 272 273 273 273 273 274 274 275 275 275 274 275 276 275 276 276 277 276 275 274 274 273 272 272 272 272 273 274 275 276 277 279 278 276 276 277 278 279 280 280 280 280 279 278 277 277 277 276 276 276 276 275 274 274 274 274 273 273 272 272 272 271 271 271 270 270 270 270 270
264 264 265 265 266 266 267 268 268 269 270 271 271 271 272 271 271 271 272 272 272 271 271 271 271 272 272 272 272 272 272 273 272 271 271 270 269 269 269 269 270 270 270 271 272 272 273 274 274 273 273 272 273 275 276 277 278 279 279 278 277 276 276 276 276 276 276 274 274 273 273 273 272 272 272 272 271 271 270 270 270 269 269 269 269
264 264 264 265 265 266 267 267 269 270 270 270 269 269 270 270 270 269 269 269 269 268 268 268 269 269 268 268 268 268 269 269 268 268 268 268 268 267 268 268 268 268 268 268 269 269 270 270 270 270 270 270 270 271 272 273 274 274 275 276 276 276 275 275 275 275 274 274 273 273 272 272 272 271 271 271 271 270 270 270 269 269 269 268 268
264 264 265 265 265 267 268 268 268 268 268 268 268 268 268 267 267 267 267 267 266 266 266 266 266 266 266 266 266 266 266 266 266 265 265 265 265 266 266 266 266 266 266 266 266 266 267 267 267 267 267 268 268 268 269 270 271 271 271 272 273 273 273 274 274 274 274 273 273 272 272 271 270 270 270 270 269 269 269 269 268 268 268 268 267
264 265 265 266 266 265 265 265 265 266 265 265 266 266 266 266 265 265 265 265 264 264 264 264 264 264 264 264 265 265 265 264 264 264 264 264 264 264 264 264 264 264 264 264 264 264 265 265 265 266 266 266 266 267 267 268 269 269 270 270 271 271 271 271 272 272 272 272 272 272 271 270 270 269 269 269 269 268 268 267 267 267 267 267 267
263 264 263 263 263 263 263 263 263 262 262 263 263 262 263 263 262 262 262 262 263 263 262 262 262 263 263 263 263 263 263 263 263 263 262 263 263 263 263 263 263 262 262 262 262 262 263 263 263 263 263 263 264 264 265 265 266 267 267 268 268 268 268 268 269 270 269 270 270 270 270 269 269 268 268 268 268 268 267 267 267 266 266 266 266
262 263 262 262 262 262 262 262 262 261 261 261 260 260 261 261 260 260 260 260 260 260 260 261 261 261 261 262 262 262 262 262 261 261 261 262 262 262 262 261 261 261 261 261 261 261 262 262 262 262 262 262 263 263 264 264 265 266 267 268 269 269 268 267 267 268 268 269 269 269 268 268 268 267 267 267 267 266 266 266 266 265 265 265 265
262 262 261 261 261 261 261 261 260 260 260 260 260 259 260 259 259 259 259 259 259 259 260 260 260 260 260 260 261 261 261 261 261 261 261 261 261 261 261 261 261 260 260 260 260 261 261 261 261 261 261 262 263 263 264 265 265 266 267 267 267 267 267 266 266 266 266 266 267 267 267 267 266 266 266 266 266 265 265 265 265 265 265 265 264
Wind_Speed
4 6 5 6 6 8 8 7 8 7 8 8 10 11 11 11 11 11 8 9 9 9 9 10 9 9 10 10 11 11 12 12 11 11 12 13 13 13 12 13 15 14 13 14 12 13 14 15 15 14 13 14 13 12 12 13 12 12 11 10 11 10 11 12 15 17 6 2 4 6 7 7 5 8 9 7 6 6 6 6 5 7 8 8 8
4 5 4 5 5 7 8 7 7 7 7 8 9 10 10 10 10 8 9 10 8 10 10 9 9 9 9 10 10 11 11 12 11 11 12 12 13 11 12 13 14 14 13 14 13 13 13 15 15 13 12 15 13 12 12 12 12 12 11 10 11 9 9 11 14 13 15 2 4 1 1 4 7 3 9 9 9 5 7 7 5 6 7 6 6
4 4 4 4 6 6 6 7 7 7 8 8 9 9 9 9 7 9 9 9 8 9 10 10 10 10 10 10 10 11 12 11 10 11 12 12 13 13 13 13 14 15 15 16 15 13 14 14 15 12 11 12 12 11 9 10 9 10 11 8 11 11 9 11 11 13 14 9 5 6 6 4 9 8 8 6 4 6 7 8 7 5 5 5 6
5 4 4 5 6 6 7 7 7 8 7 9 9 9 8 8 7 8 10 9 10 10 9 10 10 10 10 11 11 11 11 11 10 10 13 13 13 14 14 14 14 15 16 16 14 14 15 14 15 13 11 12 12 10 10 9 9 9 10 9 10 11 11 9 11 12 11 12 4 7 5 8 7 0 2 2 4 5 6 4 3 6 5 5 6
4 5 4 6 7 7 9 7 7 8 9 8 9 9 8 8 7 8 8 9 10 9 9 9 10 10 11 12 12 11 12 11 11 11 12 12 13 14 14 14 15 15 16 15 14 14 14 15 15 12 11 13 12 12 11 12 11 10 11 10 11 12 10 10 11 11 12 14 8 4 2 2 1 2 4 6 2 2 1 5 5 6 6 5 4
4 5 5 5 7 8 9 7 8 8 9 8 9 9 9 7 8 7 8 10 9 9 10 9 9 11 11 12 11 12 11 10 11 12 13 12 12 13 13 13 14 15 15 15 14 14 14 15 14 12 12 14 14 12 11 12 11 12 13 12 11 11 12 12 10 10 12 14 13 7 3 7 4 3 5 6 7 5 3 3 2 5 6 6 5
4 4 6 6 6 8 9 9 9 8 8 9 8 8 8 8 8 9 7 8 9 10 8 9 9 9 11 10 11 11 10 10 11 12 13 13 13 14 14 14 14 14 13 14 13 13 14 14 13 13 14 14 14 13 11 11 11 12 11 11 11 10 11 10 10 12 11 11 8 5 5 3 4 6 2 3 2 4 7 4 6 5 4 6 6
5 6 6 6 6 8 7 7 8 9 8 8 9 9 8 8 8 8 6 8 9 9 9 9 9 8 10 11 12 10 10 10 11 12 12 12 11 12 12 12 13 12 13 13 12 12 13 13 14 14 14 14 14 13 12 13 11 13 12 12 12 11 10 7 8 9 11 11 10 8 5 6 2 2 3 3 2 4 7 9 11 7 8 7 8
6 6 6 6 7 7 7 6 6 7 7 7 8 9 8 8 8 8 8 8 8 7 7 7 8 9 10 10 10 9 10 12 11 11 10 11 10 12 12 12 12 13 13 12 12 12 12 13 14 13 15 17 19 17 16 15 12 12 11 10 11 11 12 10 10 10 10 10 11 7 6 6 7 8 6 6 12 15 7 7 8 6 3 3 4
5 6 6 7 6 6 7 7 7 7 7 8 8 8 8 8 8 8 9 8 7 6 6 6 7 9 10 9 9 9 10 10 13 16 14 11 10 11 11 12 12 12 12 12 12 13 13 12 13 17 18 18 19 20 21 20 20 17 14 13 14 13 12 11 11 11 11 11 11 9 8 9 9 10 12 12 8 3 6 8 9 6 3 2 2
6 6 7 6 6 6 6 6 6 7 7 7 7 7 8 7 7 8 8 7 7 7 6 8 8 7 8 9 9 9 10 10 14 14 15 16 12 11 11 11 11 11 12 12 13 13 13 14 14 16 18 18 18 21 21 22 23 24 24 21 17 15 13 12 12 11 10 10 10 9 11 12 11 10 11 10 6 9 8 9 7 4 6 7 7
6 6 7 7 7 7 7 6 6 7 7 7 7 7 7 7 8 8 7 8 8 5 7 8 8 8 8 9 9 10 10 12 13 14 14 14 13 11 10 11 11 12 12 12 12 11 11 10 10 10 11 13 14 14 16 19 20 22 25 24 22 21 20 16 14 11 11 11 11 12 11 13 12 9 10 7 9 8 8 6 8 8 8 8 6
5 6 7 7 7 8 7 7 7 7 7 7 7 7 7 8 8 8 8 7 5 7 8 8 9 8 8 10 11 11 10 12 12 14 14 14 14 12 11 12 12 12 12 13 13 12 11 12 13 12 12 15 11 10 10 13 19 24 24 24 23 22 21 23 21 17 12 14 13 13 13 12 11 11 13 14 10 10 6 6 6 7 8 8 7
5 5 6 7 7 8 8 8 9 9 8 7 6 7 7 8 7 7 7 6 6 8 7 9 9 9 9 9 10 10 11 13 14 14 12 13 15 14 13 14 14 14 14 14 13 14 13 12 11 10 8 8 10 13 15 15 15 15 15 14 14 17 19 19 19 20 16 14 14 15 13 10 13 13 13 10 12 12 10 11 9 9 10 10 3
5 5 6 6 7 8 9 9 9 10 10 8 8 7 6 7 7 7 7 7 7 8 8 7 8 7 8 8 10 12 11 13 14 16 15 15 13 10 9 10 11 13 14 13 13 13 12 11 11 13 12 12 13 14 13 11 10 11 12 14 15 14 13 12 12 12 12 12 11 12 11 12 14 9 9 12 15 14 15 14 15 11 4 5 6
4 4 6 6 7 7 8 9 9 9 10 10 9 9 8 7 7 7 6 5 5 6 7 6 9 9 8 8 9 12 11 12 15 16 16 15 15 11 10 10 11 12 12 12 11 11 11 11 12 12 11 10 11 15 16 12 12 13 13 12 10 10 10 11 14 17 16 14 14 14 13 11 12 10 11 13 11 6 6 7 7 6 7 6 5
7 7 6 7 8 8 8 8 9 9 9 9 10 10 10 11 8 5 6 6 5 6 7 7 7 7 8 7 9 12 11 9 12 15 14 14 12 10 10 10 12 13 13 11 11 11 10 8 8 9 10 11 13 15 18 16 12 12 12 12 11 9 10 7 10 14 15 14 13 13 10 10 12 13 15 18 13 10 8 8 7 8 8 8 5
8 8 8 8 8 8 7 7 9 9 9 9 10 10 9 8 7 6 7 9 8 6 6 7 6 6 8 9 8 11 12 7 11 13 13 13 12 11 10 10 12 13 13 11 9 9 11 14 11 10 11 11 11 14 16 14 12 11 9 9 9 9 8 5 4 4 5 9 9 9 9 9 12 14 15 17 16 14 12 13 11 11 10 9 9
10 11 11 9 8 8 7 6 7 7 8 9 8 10 10 10 9 7 7 7 8 7 6 7 7 5 6 8 9 11 11 9 10 13 15 14 11 9 9 9 12 13 10 11 11 10 12 10 13 13 12 12 12 14 16 15 13 13 13 11 13 11 11 7 8 5 5 5 6 6 6 10 9 9 11 18 19 17 13 10 11 12 11 9 7
8 8 8 9 8 8 7 7 6 6 7 7 7 8 8 9 9 8 7 6 7 6 6 7 9 8 4 6 7 7 10 9 7 12 13 14 15 11 8 9 11 11 9 10 11 9 9 8 9 12 15 15 14 14 14 16 13 11 9 9 11 13 6 8 10 10 10 10 7 6 5 4 5 5 6 9 10 9 7 6 10 11 10 10 10
7 8 8 8 8 8 7 7 9 8 6 7 7 7 6 7 8 8 9 8 6 7 7 7 8 9 6 6 7 7 8 9 8 11 13 14 15 14 8 10 10 10 10 10 10 11 10 8 6 9 13 14 14 15 15 16 16 12 10 11 12 11 8 9 11 13 9 8 6 5 4 3 3 3 5 6 7 7 4 4 6 7 8 10 9
6 7 9 9 9 8 8 7 7 8 7 7 7 7 6 6 6 7 7 7 8 9 8 7 8 9 7 6 6 7 7 10 9 10 12 14 14 16 11 9 8 9 11 11 11 10 9 6 6 7 13 16 16 17 18 17 18 11 13 15 17 13 9 10 8 9 8 7 6 6 5 6 6 5 5 6 6 6 4 3 3 3 1 4 10
5 6 7 8 8 9 9 9 9 7 7 7 7 9 7 6 6 5 6 6 7 8 8 8 8 10 9 6 5 5 5 6 10 8 10 13 14 14 16 13 13 10 10 12 11 9 8 8 8 10 14 16 17 18 18 19 15 12 15 14 14 11 8 4 5 7 7 7 8 9 9 8 8 7 7 6 6 6 5 5 5 5 4 5 4
5 6 6 7 8 8 8 9 8 8 8 8 7 8 9 8 7 6 6 6 7 8 7 7 7 8 10 11 5 4 4 4 7 10 9 12 13 14 14 15 15 10 10 11 10 9 9 8 8 12 14 16 18 18 17 16 12 15 17 18 18 13 7 6 6 6 5 5 6 7 9 9 7 8 8 6 5 6 7 7 8 8 9 7 7
8 8 8 8 9 10 10 9 8 7 7 7 8 8 8 7 8 6 6 7 6 7 8 6 7 9 9 9 10 7 5 4 5 7 10 11 12 12 13 14 13 15 11 9 8 9 11 15 16 15 14 16 17 17 15 16 17 17 17 17 13 6 7 6 7 8 9 10 10 9 6 7 7 5 5 6 7 7 8 6 6 7 9 10 9
9 9 8 7 8 9 10 9 8 8 8 6 6 6 8 8 8 8 7 7 6 6 8 7 7 8 9 9 9 9 6 5 6 5 6 7 7 10 12 12 13 14 14 12 14 17 17 17 18 17 15 14 10 9 7 9 14 17 16 12 7 7 8 9 9 11 12 11 11 12 12 10 8 7 9 8 7 7 7 7 7 5 7 9 10
9 8 8 8 8 7 10 9 10 8 6 7 6 6 6 6 7 7 6 7 8 7 7 7 7 7 9 9 10 10 8 6 6 5 5 5 5 5 6 7 9 10 8 8 9 9 11 11 10 12 11 14 15 12 9 8 6 6 5 7 7 8 8 8 10 11 10 10 10 7 4 5 7 9 9 8 7 6 6 8 7 6 6 7 12
9 9 10 9 9 10 11 13 13 12 10 8 9 8 6 6 7 7 7 7 8 9 7 7 7 8 9 9 10 11 9 7 6 6 6 5 6 6 5 5 5 5 7 7 7 8 8 8 9 7 6 6 5 4 5 4 5 5 6 6 6 6 7 8 5 5 5 3 3 6 7 8 9 6 6 7 8 7 8 7 7 7 6 8 10
7 7 7 7 8 7 8 8 9 11 12 11 9 8 9 8 8 9 6 6 7 8 9 9 8 7 7 8 9 12 11 9 6 7 10 12 12 11 9 8 7 7 8 11 10 7 6 6 6 5 4 5 5 5 5 5 4 4 5 5 5 6 6 7 9 9 7 6 8 9 9 9 8 8 7 7 7 8 6 6 6 9 6 4 8
5 6 6 7 8 9 9 9 9 9 10 11 12 12 9 11 11 9 11 7 12 14 12 10 9 7 9 8 6 10 11 11 14 18 17 17 17 16 15 15 15 13 13 15 11 9 7 7 7 6 6 5 6 6 6 6 6 6 5 5 6 7 8 8 9 8 8 9 9 10 10 10 11 11 12 10 9 8 8 9 9 8 9 8 9
7 7 7 7 9 10 10 11 10 9 10 10 10 12 15 11 10 15 16 15 15 14 15 17 17 15 11 11 9 13 16 17 16 16 17 17 17 16 16 15 16 15 15 11 8 7 8 8 8 6 7 6 8 7 6 6 6 7 7 6 6 8 8 8 8 6 7 9 9 9 9 11 12 13 13 12 9 10 9 6 9 10 11 11 12
8 8 8 9 10 10 10 11 11 10 9 8 10 11 11 14 15 8 11 13 12 14 15 16 16 16 17 15 13 10 10 13 15 15 15 16 17 17 17 17 17 16 16 14 11 10 7 9 8 7 6 7 8 6 6 6 6 6 6 7 8 7 8 10 8 9 9 8 8 9 10 10 10 11 11 11 11 9 10 9 9 10 8 7 8
9 10 9 10 10 11 11 10 10 10 11 11 11 10 11 13 14 17 11 9 15 16 15 17 17 17 16 15 16 15 16 15 17 17 17 17 17 16 16 17 16 17 16 12 9 11 8 9 9 8 7 8 7 7 7 7 8 8 8 9 9 9 10 9 8 9 9 10 9 10 10 11 11 10 11 12 11 11 10 8 10 9 9 9 7
8 8 9 11 11 10 9 10 10 10 10 11 12 11 11 10 13 13 15 15 11 9 10 12 13 14 14 15 16 16 16 17 16 16 16 16 16 17 16 12 13 16 14 11 9 10 8 9 9 8 8 7 7 7 7 7 7 8 8 9 8 7 7 6 8 9 8 9 9 8 8 9 9 11 12 11 11 10 9 8 10 11 11 11 10
8 10 15 13 9 9 9 9 9 9 10 11 11 12 12 12 11 12 13 15 14 14 12 9 9 12 12 10 11 14 16 17 17 16 16 15 16 17 16 10 8 7 7 8 9 9 9 9 9 8 7 8 7 7 8 8 8 8 9 8 8 7 7 8 8 8 8 8 8 8 9 10 11 11 13 14 14 12 12 11 11 11 12 11 11
9 8 8 10 9 9 9 9 9 9 10 10 11 12 13 13 13 12 11 12 12 13 12 9 7 9 14 16 16 16 17 17 16 16 16 16 15 14 11 9 9 8 7 8 8 9 8 9 9 9 8 8 7 8 8 9 9 9 8 8 9 8 8 9 8 9 8 8 8 9 8 8 8 9 8 8 11 11 10 11 11 10 11 11 10
8 9 9 9 9 9 10 10 10 11 11 11 10 11 11 12 12 12 12 12 13 12 12 11 9 8 8 8 11 15 17 16 16 15 15 14 14 10 8 8 9 9 9 8 8 8 9 9 8 9 8 9 8 8 8 9 8 8 8 9 8 8 8 8 9 8 9 8 8 8 9 9 10 10 11 11 9 9 9 9 9 9 10 11 11
9 10 9 10 10 11 10 10 11 14 11 10 10 10 11 10 11 12 13 13 14 13 13 11 9 10 11 9 8 8 10 13 15 13 10 9 8 7 8 8 9 9 9 8 8 8 9 9 8 9 9 9 9 8 8 9 8 8 8 8 8 8 8 8 8 8 8 8 8 8 9 9 10 10 9 10 10 9 9 9 9 10 11 13 11
9 12 17 19 14 11 10 11 10 9 9 9 9 10 11 11 11 10 10 10 11 12 13 12 11 9 9 8 9 8 10 9 8 9 9 8 7 7 7 8 8 8 8 8 8 8 9 9 8 8 9 8 9 9 8 8 8 8 7 7 7 7 8 7 8 9 9 9 8 8 9 9 9 9 9 9 9 9 10 10 10 10 11 11 9
10 9 11 16 12 12 11 11 10 10 10 9 9 9 9 10 10 10 11 11 12 12 11 11 12 9 9 9 10 10 11 11 10 9 8 8 8 8 8 8 8 8 8 8 8 8 8 8 8 8 8 8 8 8 8 8 7 7 7 7 8 9 9 9 9 9 10 9 9 9 9 9 9 9 9 9 9 10 10 10 10 10 9 9 9
9 9 11 11 12 11 10 10 10 9 9 9 9 10 10 10 10 10 10 10 10 11 11 10 10 11 11 13 17 17 14 13 12 10 9 9 8 8 8 8 9 9 8 8 8 8 8 8 8 8 8 8 7 7 7 7 7 6 7 7 7 8 8 8 8 9 9 9 9 9 9 9 9 10 10 9 9 10 9 9 9 9 9 9 9
9 9 10 9 10 9 9 10 10 11 11 11 10 9 9 9 9 9 10 11 12 12 12 12 10 10 12 22 19 19 14 11 11 10 10 9 9 9 8 8 7 7 7 8 8 8 7 8 8 7 7 7 6 6 6 6 6 7 7 7 8 8 8 8 8 9 9 9 9 9 9 9 9 9 9 10 10 9 10 9 9 9 10 10 9
10 9 9 10 10 9 9 9 9 9 9 9 8 9 9 9 9 9 9 9 9 9 10 11 10 9 9 13 15 17 11 10 10 11 10 9 8 8 8 7 7 7 7 6 5 5 7 8 8 7 6 6 6 7 7 7 7 7 7 7 8 8 8 7 7 8 8 9 9 10 11 10 10 9 10 10 10 10 10 10 10 9 10 10 10
10 10 10 10 10 10 10 9 10 10 9 11 11 9 9 9 9 9 9 9 10 9 9 9 9 10 11 10 11 10 9 9 9 9 9 8 8 7 7 6 5 5 5 4 4 5 5 6 5 4 2 2 2 3 4 4 5 7 7 8 8 8 8 9 9 10 10 10 10 10 10 10 10 9 10 10 10 11 11 11 10 10 10 9 10
8 8 8 8 8 8 8 8 9 10 11 10 8 7 8 8 8 8 8 8 9 9 9 9 8 9 9 9 9 9 9 8 8 7 7 6 6 5 5 5 6 6 6 5 5 5 4 3 2 1 1 2 2 1 1 2 3 5 6 8 8 9 9 9 9 8 9 11 10 10 10 10 11 10 10 10 11 11 11 11 10 10 10 10 10
7 8 8 8 8 8 9 9 8 7 7 7 7 7 7 7 7 8 8 8 8 8 8 8 7 8 8 8 8 8 8 7 7 6 6 6 5 5 5 6 6 6 5 6 6 6 5 5 4 3 3 3 3 3 3 2 2 2 2 2 3 4 4 6 7 9 9 10 10 10 10 10 10 9 10 10 9 10 10 10 10 10 10 11 10
8 7 8 8 8 8 7 8 8 8 8 7 7 7 7 6 7 7 7 8 7 7 6 7 7 7 7 7 7 7 7 7 7 7 8 8 8 8 7 7 7 7 7 7 7 6 6 6 6 5 4 4 4 4 4 4 3 4 4 4 5 6 6 6 7 8 9 9 10 11 11 11 11 10 11 10 9 10 10 10 11 11 10 10 10
6 6 6 7 7 7 7 7 8 9 8 8 8 8 7 7 7 7 6 6 6 6 6 6 6 6 7 7 7 7 7 7 7 7 7 7 7 7 8 8 7 7 7 7 7 7 7 7 7 6 6 6 6 5 5 4 4 4 4 4 4 5 8 9 7 7 8 9 9 10 11 11 10 10 9 10 10 10 10 9 9 8 9 9 9
6 5 5 6 6 6 7 7 7 7 7 7 8 8 7 7 7 7 7 7 7 6 6 6 6 6 6 6 6 6 6 7 7 7 7 7 7 7 7 7 8 8 7 7 8 8 8 7 7 7 7 7 7 6 6 6 6 5 5 5 6 11 10 10 7 7 9 9 8 8 9 10 11 10 10 9 9 8 8 9 9 9 9 9 9
5 5 6 6 6 5 5 5 5 5 5 5 5 5 6 6 7 7 7 7 7 7 7 8 8 8 7 7 7 6 6 6 6 7 7 7 7 7 7 7 8 8 7 8 8 8 8 7 8 8 7 7 7 7 7 7 6 6 5 6 12 12 11 12 11 11 9 7 8 8 9 10 10 9 9 9 9 9 9 9 9 8 9 10 9
7 7 6 6 6 5 5 5 5 5 5 5 5 5 5 5 5 5 5 6 6 6 7 7 8 8 8 8 8 7 7 6 6 5 5 5 5 6 7 7 7 7 7 7 7 7 7 7 7 7 6 7 8 8 7 7 7 8 11 15 14 13 13 10 8 9 11 8 7 8 9 10 11 10 9 9 8 8 9 10 9 9 9 9 9
Wind_Direction
254 259 265 269 269 273 273 274 268 261 258 247 243 241 239 236 237 238 243 241 240 242 239 239 236 232 231 228 227 226 224 225 222 222 222 225 226 228 228 226 231 234 234 234 230 231 231 234 233 230 227 230 230 228 224 224 222 224 219 216 222 215 218 229 243 258 252 239 194 210 210 195 208 204 215 211 207 206 208 220 201 202 209 215 218
248 256 259 262 269 273 277 276 272 272 264 259 249 249 246 240 236 235 234 240 232 238 239 241 238 234 231 229 228 228 226 225 222 220 222 225 228 227 229 227 232 235 232 236 230 231 232 235 235 231 226 231 231 227 223 225 223 225 224 220 225 220 210 224 242 249 257 184 248 317 247 187 220 186 208 204 214 176 199 207 204 202 210 213 215
260 256 265 274 274 274 280 281 279 274 269 264 258 253 251 248 239 234 235 239 233 229 234 234 235 233 232 230 228 228 226 227 222 219 222 224 226 227 227 226 229 232 232 234 232 230 234 235 237 232 230 234 233 232 224 227 224 227 227 217 227 226 216 222 237 249 255 250 190 213 207 197 208 212 211 215 184 177 189 205 204 205 218 213 216
264 267 270 277 278 288 282 279 283 278 273 266 263 260 255 253 246 241 240 239 236 232 226 230 230 229 231 231 227 226 225 224 221 218 221 221 225 227 226 227 228 230 233 234 233 231 233 236 237 232 231 236 238 236 235 229 226 228 231 228 229 231 230 227 231 246 255 266 212 215 197 194 234 198 128 109 154 181 202 194 187 211 214 211 215
263 264 264 277 287 286 285 287 284 280 274 272 269 268 264 260 253 248 248 244 240 237 235 225 228 226 228 230 229 226 226 223 221 222 223 224 225 227 227 228 230 232 233 234 232 231 233 234 238 233 232 237 239 235 233 232 231 231 233 232 231 232 230 228 233 233 245 250 248 214 173 212 128 134 159 161 159 171 156 201 207 217 220 218 216
254 260 271 279 285 287 283 289 282 276 276 278 274 274 272 264 260 254 245 250 248 240 236 230 224 227 228 230 229 230 226 222 222 224 224 224 226 228 229 229 231 232 233 233 232 230 233 235 236 232 232 232 236 233 229 230 228 229 229 227 227 229 232 230 226 236 244 247 245 223 167 183 198 205 194 181 168 190 220 234 237 229 215 229 225
279 275 276 273 284 286 292 292 290 289 288 285 285 283 277 272 267 262 252 247 251 250 242 239 235 230 233 230 231 230 228 222 225 228 229 228 227 229 231 233 234 234 236 235 235 234 235 236 235 230 229 230 232 230 226 226 224 229 228 230 231 231 232 227 219 221 227 244 250 225 199 227 190 209 186 181 189 194 197 185 246 218 206 210 229
306 296 292 291 284 283 287 294 300 298 299 297 295 294 296 292 284 278 276 262 253 253 253 245 245 234 237 233 234 228 229 229 229 230 231 231 232 235 234 236 239 240 240 239 236 236 235 236 235 229 227 228 228 230 223 228 223 228 221 218 219 219 227 227 231 230 229 230 234 226 202 184 162 66 86 120 191 285 219 200 219 208 210 208 220
321 311 307 294 287 293 300 301 297 300 300 299 298 297 296 294 293 288 281 273 267 261 261 259 256 249 247 244 243 233 229 232 230 228 230 233 233 238 238 237 237 239 240 239 237 236 237 234 234 233 229 229 224 222 221 220 222 229 226 220 225 222 226 222 224 224 229 230 235 222 202 187 200 173 167 183 201 213 179 179 228 228 186 195 233
330 320 312 298 297 300 299 300 302 304 304 301 299 297 296 294 292 290 287 283 287 289 291 281 267 262 261 256 248 243 240 240 237 230 223 224 228 233 237 239 237 238 239 241 239 234 233 233 236 236 236 233 231 228 223 217 214 216 218 213 218 220 222 220 221 221 223 224 228 215 211 214 199 199 201 213 204 96 146 177 212 210 135 221 262
330 325 316 311 306 302 302 297 303 304 299 301 299 299 296 296 294 291 288 290 292 295 301 296 283 276 270 268 263 252 247 246 242 234 232 229 229 235 237 242 241 242 241 241 243 239 237 233 231 222 222 226 225 222 222 223 225 225 226 222 214 210 212 215 220 215 217 224 224 213 218 221 216 200 208 207 184 193 191 190 196 151 183 189 225
325 320 313 317 321 320 315 310 310 304 307 302 302 299 299 298 294 289 290 291 287 301 294 279 281 283 283 279 271 264 259 254 250 249 242 236 231 239 247 248 245 245 245 243 244 241 240 240 240 240 232 228 223 223 229 232 232 232 233 233 228 216 208 204 212 216 216 221 220 218 211 219 216 181 207 185 197 197 201 175 186 185 183 201 208
325 325 325 328 327 327 325 326 319 313 310 307 306 307 304 299 294 294 289 286 301 292 282 289 284 283 277 278 279 279 277 272 265 259 254 249 242 237 252 253 256 255 250 249 249 247 243 238 236 230 229 223 229 239 241 238 236 237 236 233 229 222 221 221 216 211 205 215 221 221 211 213 209 207 198 200 181 184 169 182 190 199 202 203 206
337 331 334 333 331 329 328 329 326 320 318 316 315 314 311 302 297 291 289 298 291 285 284 279 280 281 281 281 279 278 275 284 293 289 281 267 259 247 246 246 246 250 248 244 242 241 239 238 241 242 240 231 228 227 229 230 227 230 235 235 235 237 238 236 233 229 220 216 217 224 221 199 213 212 202 164 160 184 175 200 191 194 200 207 166
343 344 341 331 332 332 331 329 325 322 322 322 321 314 305 301 301 295 295 290 288 281 284 285 277 275 277 276 279 279 277 284 285 286 292 291 286 273 262 260 254 252 253 255 254 251 248 247 247 249 242 228 223 213 225 233 239 238 233 231 229 227 223 223 224 229 231 233 229 229 224 209 220 207 168 179 186 187 187 191 188 188 140 77 57
340 346 340 335 333 329 328 325 322 322 322 323 323 320 317 307 303 301 292 288 278 280 281 269 276 277 272 273 273 274 273 276 278 280 280 280 283 281 271 267 264 261 258 252 253 256 253 243 239 237 235 234 237 228 230 229 224 229 228 230 232 232 232 227 224 223 221 219 220 222 222 210 204 189 175 180 188 155 102 76 98 118 142 156 160
348 344 336 332 330 328 328 323 320 319 320 321 319 319 319 318 313 301 300 287 281 279 274 272 271 275 276 268 269 273 276 273 270 271 272 271 272 268 267 264 263 264 262 261 255 256 254 247 244 245 243 241 227 217 226 226 235 233 232 230 226 220 230 228 243 246 244 242 240 238 228 209 199 190 183 184 178 158 133 129 157 149 152 177 168
338 335 331 329 325 324 322 321 318 317 319 317 314 310 306 298 296 306 302 303 299 281 275 281 269 261 268 269 261 276 282 286 279 279 276 269 259 261 262 264 264 258 260 258 258 259 254 245 240 243 243 243 232 221 223 219 232 235 232 239 245 242 244 221 230 245 233 227 229 227 220 208 200 192 188 184 171 158 160 182 176 165 186 183 176
337 333 328 324 321 317 313 311 308 308 311 310 310 308 307 305 302 302 293 288 284 292 288 284 281 260 252 263 266 266 279 282 272 271 269 266 260 260 262 259 262 262 265 266 256 250 252 243 237 238 242 248 237 227 226 218 225 224 219 220 230 232 232 195 206 190 198 198 211 190 206 203 197 190 194 187 177 181 188 179 156 173 178 182 150
317 314 313 315 316 314 311 307 301 300 300 297 296 293 296 304 304 304 296 285 289 292 287 284 288 288 273 270 271 266 277 281 271 267 267 263 256 254 257 260 263 271 270 268 274 265 258 255 234 233 242 247 247 240 230 218 223 232 223 222 225 236 206 190 202 195 202 201 203 205 210 186 179 183 177 180 181 186 183 157 174 176 177 171 168
316 315 314 313 313 311 309 306 307 302 289 289 286 286 286 286 295 301 303 304 296 293 290 288 289 289 284 274 275 270 265 277 274 262 264 263 261 255 256 254 264 272 274 270 263 268 267 258 258 232 233 242 242 241 235 227 223 225 220 224 218 229 187 195 203 197 194 194 186 177 158 148 167 174 173 171 174 178 163 153 181 188 166 165 167
308 312 315 313 312 311 311 305 296 295 296 298 301 294 284 275 277 282 284 292 299 299 298 293 290 289 285 263 259 264 254 248 265 259 257 259 259 255 254 258 253 264 267 266 265 267 271 277 264 236 229 234 235 234 233 229 224 222 228 226 233 226 187 205 190 187 189 180 176 171 168 172 174 178 179 173 167 161 141 131 157 163 126 159 172
297 299 301 306 308 309 309 310 309 306 300 299 300 305 304 301 290 279 284 291 289 291 292 293 295 298 298 279 255 259 260 259 256 261 258 257 259 259 258 259 260 255 260 266 266 270 268 261 254 236 228 233 236 237 236 232 229 229 232 229 231 216 199 185 181 183 192 189 181 183 184 182 181 186 181 176 162 143 128 114 111 108 85 53 43
299 307 309 308 309 309 307 304 298 295 300 305 308 305 311 311 306 302 298 295 300 300 296 292 292 295 302 308 293 259 258 256 258 258 260 256 256 258 261 262 262 258 255 265 276 273 278 273 263 251 240 237 237 238 237 230 223 224 221 223 219 207 182 178 166 182 175 179 199 205 201 190 180 184 187 164 143 123 107 102 88 89 91 71 74
319 314 312 313 315 315 311 305 300 298 301 306 311 315 311 315 314 311 306 303 295 295 295 297 295 297 300 298 304 305 289 278 268 264 261 260 257 258 261 264 265 265 267 268 267 270 270 274 277 269 256 248 244 244 242 235 229 228 225 221 206 175 182 170 179 170 184 193 198 200 207 208 198 159 108 107 107 101 98 80 75 80 91 91 81
315 312 307 305 304 303 303 303 303 304 304 299 294 292 300 308 306 307 307 296 293 290 296 300 298 298 297 299 302 304 306 295 286 275 270 268 263 260 257 258 262 263 263 272 274 276 277 276 272 268 261 256 252 249 243 233 228 228 226 210 188 190 182 191 192 191 199 199 192 194 194 178 170 150 130 123 130 137 126 126 122 109 110 115 98
305 307 309 309 309 309 312 314 313 305 300 299 290 285 284 285 286 289 289 295 295 292 288 294 297 296 298 302 303 306 308 311 301 296 280 279 274 270 266 262 262 268 274 272 274 272 272 268 261 253 245 244 240 243 245 243 238 231 207 196 199 199 200 198 196 201 207 203 205 196 161 144 98 119 151 151 140 143 143 138 117 125 116 111 106
310 313 317 320 322 325 322 321 321 315 315 311 305 301 281 272 282 280 287 287 296 296 292 287 287 293 300 302 305 304 304 306 308 311 312 315 310 295 280 276 276 273 280 280 277 280 283 280 270 269 259 258 249 241 235 223 223 216 203 194 199 196 197 205 211 220 221 192 123 102 97 125 151 138 96 123 132 133 153 141 129 128 134 129 107
295 295 297 301 300 302 301 299 303 306 307 310 299 292 300 299 287 282 242 237 250 270 288 278 274 273 273 286 299 301 300 302 300 312 307 305 305 307 308 302 297 286 271 277 289 289 287 280 274 265 247 248 241 232 230 221 221 221 213 195 185 187 189 187 199 203 188 151 159 159 159 154 156 152 142 138 155 157 155 132 134 130 138 93 115
303 300 304 310 312 314 311 309 305 302 302 303 306 301 270 263 275 280 292 258 244 249 248 266 269 278 284 268 243 271 285 293 304 305 302 301 297 293 289 288 285 283 283 281 283 291 283 276 265 256 252 237 240 235 229 220 208 195 209 204 196 192 198 203 203 194 174 181 176 169 167 167 165 165 168 162 158 162 167 158 153 149 139 139 134
315 314 318 317 317 313 310 310 309 304 303 303 303 304 309 297 260 264 263 270 271 265 264 263 266 264 260 283 271 253 268 280 287 292 294 294 294 291 290 289 286 283 282 288 283 260 274 269 267 251 250 244 243 240 226 223 215 207 210 208 218 210 202 201 206 192 190 187 182 177 169 172 175 177 177 171 159 159 163 160 150 157 155 148 145
320 317 316 311 312 309 303 303 304 302 302 302 300 303 303 306 307 273 264 274 265 268 271 270 268 265 264 264 273 283 274 275 279 280 285 289 291 290 288 286 283 280 276 270 268 267 255 262 264 257 247 243 243 238 230 221 215 208 205 208 218 215 212 215 195 183 190 185 183 181 181 181 177 179 176 168 163 160 163 160 165 159 146 145 142
316 312 310 309 307 308 304 303 304 307 307 307 307 302 300 303 302 310 303 276 283 281 275 271 268 268 267 267 265 264 271 277 281 284 284 284 287 288 286 282 280 276 276 267 250 265 253 255 258 256 246 248 243 234 231 222 219 215 209 211 214 211 215 216 194 199 195 191 186 192 185 180 177 176 178 172 164 163 163 163 161 148 146 138 138
300 301 305 306 305 303 302 300 300 300 299 298 298 299 298 295 296 296 302 310 302 277 259 258 262 264 263 261 262 267 272 274 273 275 279 283 284 285 284 281 273 271 262 260 255 257 257 254 256 254 254 248 245 237 234 228 222 224 221 221 223 218 217 207 204 207 199 190 191 190 183 180 174 173 172 172 167 153 156 165 162 157 158 156 149
305 300 303 302 295 294 293 290 288 288 293 294 295 297 295 296 293 292 295 296 297 298 303 293 272 261 269 275 274 274 274 273 273 272 272 274 279 283 288 287 283 267 248 243 251 254 255 254 255 255 250 250 243 234 237 229 225 222 222 222 219 212 198 198 206 205 202 194 189 187 183 179 182 182 173 167 165 171 173 167 171 166 157 153 154
293 292 293 295 290 286 286 288 286 284 284 283 283 283 288 290 289 290 288 286 288 292 292 283 282 287 280 280 277 275 274 271 269 268 268 270 275 285 287 274 277 267 256 250 244 251 247 251 251 254 249 249 243 238 235 233 227 224 222 217 217 207 203 199 199 200 199 195 194 182 174 176 170 168 164 168 172 170 167 167 164 163 154 151 153
297 296 296 294 291 288 287 284 281 281 279 281 280 278 280 284 287 289 288 287 289 288 285 293 294 281 258 259 271 270 268 269 267 264 263 265 267 268 264 271 267 271 261 257 251 249 249 246 242 249 246 248 244 238 236 234 229 226 221 218 215 209 206 201 196 192 191 191 186 176 175 171 167 170 170 170 170 166 163 158 158 154 152 147 142
296 294 293 293 290 287 283 279 279 280 278 276 274 276 278 277 279 281 284 287 288 291 294 296 294 292 296 295 272 272 276 269 272 276 267 256 252 245 250 257 261 262 267 260 255 254 254 253 243 244 245 239 245 236 234 233 227 223 217 214 208 211 195 192 189 187 189 184 180 175 171 171 170 169 166 168 167 165 163 161 159 154 148 152 153
295 293 294 295 292 289 286 285 281 279 276 276 275 280 283 284 282 279 281 282 285 287 291 290 290 292 296 299 296 283 274 278 269 269 273 268 259 253 254 257 259 262 261 262 257 254 255 256 250 246 247 243 241 239 232 233 225 221 210 203 201 189 185 185 184 185 182 184 179 176 172 168 166 166 164 160 160 160 158 157 159 156 154 156 160
298 296 294 294 292 289 288 285 286 285 284 288 288 286 285 285 285 288 289 290 290 293 292 293 294 294 299 307 307 308 298 289 283 279 276 274 270 267 264 265 264 261 264 261 258 256 257 256 253 250 248 245 241 239 235 229 225 215 203 197 194 195 192 188 186 183 183 177 175 171 168 166 163 160 160 161 158 156 156 159 159 156 152 150 147
298 298 295 292 287 288 286 285 284 283 287 287 288 287 284 285 287 288 289 290 292 295 295 297 302 306 310 305 301 299 295 293 293 292 287 285 282 278 275 274 272 272 268 265 263 260 259 261 256 252 249 245 240 235 230 224 213 201 197 197 195 195 190 188 183 180 174 170 170 167 166 160 160 161 162 159 152 150 150 149 149 151 144 140 144
293 293 296 293 293 290 289 289 287 289 289 288 287 284 283 284 288 290 295 295 296 295 294 292 292 297 299 303 303 304 302 295 296 295 293 289 287 285 286 291 299 304 303 297 294 288 280 270 265 257 251 242 232 226 213 213 202 196 195 192 194 189 186 185 181 176 171 167 163 162 160 159 159 157 150 147 147 147 145 147 148 144 141 143 145
298 298 299 298 297 293 293 292 293 292 288 287 286 290 293 297 297 295 293 291 292 292 294 296 294 299 300 310 316 316 307 301 297 295 293 298 301 302 300 296 295 293 289 287 283 280 278 275 271 260 247 237 223 213 210 208 199 195 188 193 191 188 183 176 170 168 165 160 159 156 155 154 152 150 149 147 145 142 142 141 143 143 144 144 147
304 301 296 291 289 285 285 285 286 285 285 286 288 292 296 296 295 293 294 293 292 295 298 309 319 321 317 319 316 310 303 303 303 307 311 311 309 307 310 310 304 301 297 302 307 306 290 277 268 279 320 299 285 240 222 208 190 193 188 187 190 185 180 174 174 171 166 162 156 153 152 150 147 145 144 145 143 143 144 144 144 147 148 150 149
287 287 286 284 284 279 278 278 280 282 286 290 291 295 299 302 299 300 305 308 316 318 316 313 314 315 320 325 328 324 321 318 318 320 321 320 319 316 318 318 322 320 323 323 326 323 326 329 333 2 356 351 354 340 288 220 205 199 198 187 183 183 182 176 173 162 157 153 151 150 148 147 149 148 147 147 146 144 144 147 148 147 149 152 154
291 290 287 286 286 283 284 283 284 294 304 313 312 313 312 313 318 323 319 320 323 324 325 327 328 331 332 332 331 334 329 332 331 333 331 334 335 331 331 329 330 330 332 332 332 339 345 354 1 4 10 1 0 3 357 8 36 57 96 119 143 148 142 139 139 144 151 150 149 147 144 141 142 146 148 145 146 144 143 144 148 155 155 153 151
295 285 286 276 275 281 299 319 327 322 317 316 317 320 323 323 324 323 324 329 329 329 334 336 338 338 340 336 340 342 342 347 346 347 348 348 347 345 344 342 344 345 345 341 344 345 351 357 4 9 3 12 3 15 22 16 31 51 60 91 107 118 127 135 139 145 143 144 143 143 145 144 143 143 145 143 140 142 143 150 153 153 152 151 147
303 306 312 328 337 342 340 341 335 335 335 332 330 327 324 329 328 329 332 332 336 339 342 344 347 345 344 344 351 349 355 354 353 352 350 351 352 350 352 352 355 350 349 352 357 359 3 3 360 3 6 9 14 9 10 24 25 41 50 59 85 112 122 126 127 126 133 137 142 141 141 138 137 138 142 143 143 144 144 145 143 143 143 142 142
327 334 338 340 349 349 347 343 346 343 338 340 337 335 337 339 340 342 339 342 344 347 346 347 345 343 349 349 354 356 359 358 358 357 357 357 357 359 2 4 2 2 4 2 1 1 2 2 8 12 11 10 8 11 11 11 28 36 53 55 88 101 102 105 111 115 119 121 120 124 126 131 133 134 132 132 135 137 134 135 138 138 137 137 139
336 343 347 347 351 347 345 345 341 338 336 336 339 338 341 347 350 351 348 351 351 351 355 356 354 353 353 351 359 1 4 5 7 4 3 5 5 4 8 8 12 12 12 11 8 8 5 2 4 9 8 14 26 24 25 21 23 33 36 70 98 103 95 91 96 106 111 114 119 125 126 124 122 124 125 128 130 133 133 137 137 137 139 141 143
344 348 348 349 345 342 343 343 346 344 337 338 344 342 340 346 342 337 345 355 0 1 3 3 359 356 355 353 353 353 357 0 2 1 6 15 17 17 18 15 14 13 7 19 11 9 6 3 6 3 12 19 22 24 26 31 32 44 58 67 81 88 84 74 79 76 85 90 100 107 118 123 127 125 126 125 129 130 135 134 136 138 141 142 143